User: anonymous   Login
Location: Unspecified
(0.0000°N, 0.0000°E)
Time: 07:29:58
(UTC+00:00)
Language:

N. Korean satellite - Orbit

View from above orbital plane
View from above orbital plane
View from above satellite
View from above satellite

Ground track
Ground track

The orbit data is extracted from the following two-line orbital elements,

1 39026U 12072A   22334.55646490  .00018374  00000-0  41583-3 0  9992
2 39026  97.2798 324.1113 0023577 282.7323  77.1289 15.42888384554470
Epoch (UTC): 30 November 2022 13:21:18
Eccentricity: 0.0023577
inclination: 97.2798°
perigee height: 421 km
apogee height: 453 km
right ascension of ascending node: 324.1113°
argument of perigee: 282.7323°
revolutions per day: 15.42888384
mean anomaly at epoch: 77.1289°
orbit number at epoch: 55447

The dashed part of the orbit path shows where the satellite is in the earth's shadow,  

DLR